Torna al catalogo

STARLINK-35978

AttivoComunicazioniVLEO
NORAD 66601·PAYLOAD·🇺🇸 United States

Lanciato Nov 22, 2025 da Cape Canaveral Space Force Station

Loading…

Prossimi Passaggi (prossime 24 ore)

TLE

AggiornatoSource: CelesTrak SupGP

Epoca: Sep 14, 2026, 20:50 UTC

1 66601C 25270P   26257.86854167  .00018570  00000+0  67281-3 0  2576
2 66601  43.0003  67.7441 0001418 275.1873 277.8006 15.27559848    12

Traccia STARLINK-35978 in tempo reale con AllMySat

Download on the App Store